Location: *
(2.5500°S, 65.9667°W)
Time: 11:54:17
(UTC+00:00)

Centaur D-1AR AC-39 - Pass Details

Date: 26 October 2021
Orbit: 578 x 36202 km, 21.5° (Epoch: 28 November)

Event Time Altitude Azimuth Distance (km) Brightness Sun altitude
Rises 22:22:17 0° 297° (WNW) 2,817 5.8 -3.0°
Reaches altitude 10° 22:24:06 10° 300° (WNW) 1,874 4.8 -3.4°
Maximum altitude 22:27:26 70° 25° (NNE) 764 1.9 -4.2°
Drops below altitude 10° 22:34:50 10° 109° (ESE) 4,048 5.2 -6.0°
Sets 22:41:24 0° 111° (ESE) 7,088 6.4 -7.6°
